| time (UTC) | temp F | wind direction | speed MPH | gust MPH | rain 1hr in | rain 24hr in | rain mn in | humidity % | barometer mb |
| 20260508032717 | 47 | 128 | 0.0 | 0.0 | 0.00 | 0.24 | 0.24 | 82 | 1009.4 |
| 20260508031701 | 47 | 128 | 0.0 | 0.0 | 0.00 | 0.24 | 0.24 | 81 | 1009.5 |
| 20260508030644 | 48 | 128 | 0.0 | 0.0 | 0.00 | 0.24 | 0.24 | 80 | 1009.5 |
| 20260508025627 | 48 | 164 | 0.0 | 0.0 | 0.00 | 0.24 | 0.24 | 80 | 1009.4 |
| 20260508024609 | 48 | 164 | 0.0 | 0.0 | 0.00 | 0.24 | 0.24 | 78 | 1009.4 |
| 20260508023552 | 49 | 168 | 0.0 | 0.0 | 0.00 | 0.24 | 0.24 | 78 | 1009.5 |
| 20260508022750 | 49 | 166 | 0.0 | 0.0 | 0.00 | 0.24 | 0.24 | 77 | 1009.6 |
| 20260508021520 | 49 | 168 | 0.0 | 0.0 | 0.00 | 0.24 | 0.24 | 75 | 1009.5 |
| 20260508020501 | 50 | 168 | 0.0 | 0.0 | 0.00 | 0.24 | 0.24 | 75 | 1009.5 |
| 20260508015419 | 50 | 319 | 0.0 | 3.0 | 0.00 | 0.24 | 0.24 | 73 | 1009.3 |
| 20260508014336 | 51 | 359 | 0.0 | 3.0 | 0.00 | 0.24 | 0.24 | 71 | 1009.2 |
| 20260508013319 | 51 | 291 | 0.0 | 3.0 | 0.00 | 0.24 | 0.24 | 70 | 1009.2 |
| 20260508012307 | 52 | 253 | 0.0 | 2.0 | 0.00 | 0.24 | 0.24 | 68 | 1009.0 |
| 20260508011246 | 52 | 113 | 0.0 | 0.0 | 0.00 | 0.24 | 0.24 | 65 | 1008.9 |
| 20260508010229 | 53 | 26 | 0.0 | 0.0 | 0.00 | 0.24 | 0.24 | 64 | 1008.9 |
| 20260508005426 | 53 | 10 | 0.0 | 0.0 | 0.00 | 0.24 | 0.24 | 61 | 1008.8 |
| 20260508004156 | 54 | 10 | 0.0 | 0.0 | 0.00 | 0.24 | 0.24 | 59 | 1008.6 |
| 20260508003354 | 54 | 10 | 0.0 | 0.0 | 0.00 | 0.24 | 0.24 | 58 | 1008.6 |
| 20260508002122 | 55 | 12 | 0.0 | 0.0 | 0.00 | 0.24 | 0.24 | 55 | 1008.4 |
| 20260508001105 | 55 | 8 | 0.0 | 0.0 | 0.00 | 0.24 | 0.24 | 53 | 1008.3 |
| 20260508000047 | 56 | 247 | 0.0 | 2.0 | 0.00 | 0.24 | 0.24 | 50 | 1008.2 |
| 20260507235029 | 57 | 247 | 0.0 | 2.0 | 0.00 | 0.24 | 0.24 | 49 | 1008.2 |
| 20260507234011 | 58 | 72 | 0.0 | 0.0 | 0.00 | 0.24 | 0.24 | 46 | 1008.1 |
| 20260507232954 | 59 | 4 | 0.0 | 0.0 | 0.00 | 0.24 | 0.24 | 46 | 1008.0 |
| 20260507231938 | 59 | 2 | 0.0 | 0.0 | 0.00 | 0.24 | 0.24 | 44 | 1007.9 |
| 20260507230921 | 60 | 0 | 0.0 | 0.0 | 0.00 | 0.24 | 0.24 | 42 | 1007.8 |
| 20260507225904 | 61 | 0 | 0.0 | 0.0 | 0.00 | 0.24 | 0.24 | 41 | 1007.9 |
| 20260507224847 | 61 | 72 | 0.0 | 0.0 | 0.00 | 0.24 | 0.24 | 40 | 1007.8 |
| 20260507223830 | 62 | 72 | 1.0 | 0.0 | 0.00 | 0.24 | 0.24 | 40 | 1007.9 |
| 20260507222813 | 62 | 4 | 1.0 | 0.0 | 0.00 | 0.24 | 0.24 | 39 | 1007.9 |
| 20260507221755 | 63 | 2 | 1.0 | 0.0 | 0.00 | 0.24 | 0.24 | 39 | 1007.9 |
| 20260507220739 | 63 | 0 | 1.0 | 0.0 | 0.00 | 0.24 | 0.24 | 37 | 1007.9 |
| 20260507215912 | 63 | 64 | 1.0 | 0.0 | 0.00 | 0.24 | 0.24 | 35 | 1008.0 |
| 20260507214638 | 64 | 68 | 1.0 | 0.0 | 0.00 | 0.24 | 0.24 | 36 | 1008.0 |
| 20260507213621 | 64 | 68 | 1.0 | 0.0 | 0.00 | 0.24 | 0.24 | 36 | 1007.9 |
| 20260507212821 | 64 | 70 | 1.0 | 0.0 | 0.00 | 0.24 | 0.24 | 36 | 1007.9 |
| 20260507211547 | 65 | 70 | 1.0 | 0.0 | 0.00 | 0.24 | 0.24 | 36 | 1007.9 |
| 20260507210505 | 65 | 0 | 1.0 | 0.0 | 0.00 | 0.24 | 0.24 | 35 | 1007.8 |
| 20260507205448 | 65 | 326 | 2.0 | 6.0 | 0.00 | 0.24 | 0.24 | 35 | 1007.7 |
| 20260507204431 | 65 | 316 | 1.0 | 5.0 | 0.00 | 0.24 | 0.24 | 36 | 1007.7 |
| 20260507203414 | 65 | 78 | 1.0 | 0.0 | 0.00 | 0.24 | 0.24 | 36 | 1007.7 |
| 20260507202358 | 66 | 340 | 1.0 | 5.0 | 0.00 | 0.24 | 0.24 | 36 | 1007.8 |
| 20260507201555 | 66 | 340 | 1.0 | 8.0 | 0.00 | 0.24 | 0.24 | 36 | 1007.9 |
| 20260507200258 | 66 | 345 | 2.0 | 0.0 | 0.00 | 0.24 | 0.24 | 37 | 1007.9 |
| 20260507195242 | 66 | 263 | 1.0 | 0.0 | 0.00 | 0.24 | 0.24 | 36 | 1008.0 |
| 20260507194225 | 66 | 254 | 2.0 | 0.0 | 0.00 | 0.24 | 0.24 | 36 | 1008.2 |
| 20260507193206 | 66 | 322 | 1.0 | 7.0 | 0.00 | 0.24 | 0.24 | 37 | 1008.2 |
| 20260507192150 | 65 | 312 | 1.0 | 0.0 | 0.00 | 0.24 | 0.24 | 37 | 1008.4 |
| 20260507191133 | 65 | 312 | 2.0 | 0.0 | 0.00 | 0.25 | 0.24 | 38 | 1008.5 |
| 20260507190117 | 65 | 98 | 2.0 | 6.0 | 0.00 | 0.25 | 0.24 | 39 | 1008.5 |
| 20260507185059 | 65 | 316 | 1.0 | 0.0 | 0.00 | 0.25 | 0.24 | 39 | 1008.7 |
| 20260507184043 | 65 | 312 | 2.0 | 0.0 | 0.00 | 0.25 | 0.24 | 40 | 1008.9 |
| 20260507183026 | 64 | 256 | 2.0 | 0.0 | 0.00 | 0.25 | 0.24 | 40 | 1009.0 |
| 20260507182009 | 64 | 316 | 2.0 | 0.0 | 0.00 | 0.25 | 0.24 | 40 | 1009.0 |
| 20260507180953 | 64 | 310 | 1.0 | 8.0 | 0.00 | 0.25 | 0.24 | 40 | 1009.2 |
| 20260507175935 | 64 | 4 | 2.0 | 0.0 | 0.00 | 0.26 | 0.24 | 41 | 1009.3 |
| 20260507174919 | 63 | 68 | 2.0 | 0.0 | 0.00 | 0.26 | 0.24 | 41 | 1009.5 |
| 20260507173902 | 63 | 70 | 2.0 | 0.0 | 0.00 | 0.26 | 0.24 | 41 | 1009.7 |
| 20260507172754 | 63 | 66 | 2.0 | 0.0 | 0.00 | 0.26 | 0.24 | 43 | 1009.9 |
| 20260507171731 | 63 | 66 | 2.0 | 0.0 | 0.00 | 0.26 | 0.24 | 43 | 1009.9 |
| 20260507170715 | 63 | 66 | 2.0 | 0.0 | 0.00 | 0.26 | 0.24 | 44 | 1010.1 |
| 20260507165658 | 62 | 0 | 2.0 | 8.0 | 0.00 | 0.26 | 0.24 | 44 | 1010.3 |
| 20260507164641 | 62 | 0 | 1.0 | 8.0 | 0.00 | 0.26 | 0.24 | 44 | 1010.3 |
| 20260507163620 | 61 | 70 | 2.0 | 8.0 | 0.00 | 0.28 | 0.24 | 46 | 1010.5 |
| 20260507162819 | 61 | 6 | 2.0 | 8.0 | 0.00 | 0.29 | 0.24 | 47 | 1010.6 |
| 20260507161602 | 61 | 0 | 2.0 | 8.0 | 0.00 | 0.29 | 0.24 | 48 | 1010.7 |
| 20260507160545 | 61 | 0 | 2.0 | 8.0 | 0.00 | 0.29 | 0.24 | 50 | 1010.8 |
| 20260507155740 | 60 | 345 | 2.0 | 0.0 | 0.00 | 0.30 | 0.24 | 50 | 1011.0 |
| 20260507154455 | 60 | 89 | 2.0 | 0.0 | 0.00 | 0.31 | 0.24 | 52 | 1011.2 |
| 20260507153626 | 59 | 327 | 2.0 | 7.0 | 0.00 | 0.31 | 0.24 | 53 | 1011.3 |
| 20260507152355 | 58 | 111 | 2.0 | 0.0 | 0.00 | 0.31 | 0.24 | 54 | 1011.5 |
| 20260507151313 | 58 | 51 | 2.0 | 0.0 | 0.00 | 0.31 | 0.24 | 58 | 1011.6 |
| 20260507150510 | 58 | 64 | 2.0 | 0.0 | 0.00 | 0.31 | 0.24 | 59 | 1011.6 |
| 20260507145210 | 58 | 162 | 2.0 | 0.0 | 0.00 | 0.31 | 0.24 | 63 | 1011.7 |
| 20260507144154 | 57 | 123 | 2.0 | 0.0 | 0.00 | 0.31 | 0.24 | 65 | 1011.9 |
| 20260507143133 | 56 | 66 | 2.0 | 0.0 | 0.00 | 0.31 | 0.24 | 67 | 1011.9 |
| 20260507142113 | 56 | 64 | 1.0 | 0.0 | 0.00 | 0.31 | 0.24 | 70 | 1011.9 |
| 20260507141056 | 55 | 0 | 2.0 | 0.0 | 0.00 | 0.31 | 0.24 | 72 | 1012.0 |
| 20260507140039 | 55 | 66 | 1.0 | 0.0 | 0.00 | 0.31 | 0.24 | 74 | 1012.0 |
| 20260507135022 | 54 | 62 | 1.0 | 0.0 | 0.00 | 0.31 | 0.24 | 76 | 1011.8 |
| 20260507134003 | 53 | 62 | 1.0 | 0.0 | 0.00 | 0.31 | 0.24 | 79 | 1012.0 |
| 20260507132852 | 53 | 62 | 1.0 | 0.0 | 0.00 | 0.31 | 0.24 | 82 | 1011.9 |
| 20260507132049 | 52 | 62 | 1.0 | 0.0 | 0.01 | 0.31 | 0.24 | 83 | 1011.9 |
| 20260507131035 | 51 | 62 | 1.0 | 0.0 | 0.01 | 0.31 | 0.24 | 85 | 1012.0 |
| 20260507125803 | 51 | 296 | 1.0 | 0.0 | 0.01 | 0.31 | 0.24 | 86 | 1012.0 |
| 20260507124740 | 51 | 296 | 1.0 | 0.0 | 0.01 | 0.31 | 0.24 | 87 | 1012.0 |
| 20260507123723 | 51 | 296 | 0.0 | 0.0 | 0.01 | 0.31 | 0.24 | 88 | 1011.9 |
| 20260507122705 | 50 | 294 | 0.0 | 0.0 | 0.01 | 0.31 | 0.24 | 89 | 1012.0 |
| 20260507121646 | 50 | 292 | 0.0 | 0.0 | 0.00 | 0.30 | 0.23 | 90 | 1012.0 |
| 20260507120904 | 50 | 290 | 0.0 | 0.0 | 0.00 | 0.30 | 0.23 | 90 | 1012.0 |
| 20260507115613 | 50 | 300 | 0.0 | 0.0 | 0.00 | 0.30 | 0.23 | 90 | 1011.8 |
| 20260507114556 | 50 | 298 | 0.0 | 0.0 | 0.00 | 0.30 | 0.23 | 90 | 1011.8 |
| 20260507113529 | 50 | 294 | 0.0 | 0.0 | 0.00 | 0.30 | 0.23 | 91 | 1011.6 |
| 20260507112513 | 50 | 298 | 0.0 | 0.0 | 0.00 | 0.30 | 0.23 | 91 | 1011.5 |
| 20260507111447 | 50 | 300 | 0.0 | 0.0 | 0.00 | 0.30 | 0.23 | 91 | 1011.3 |
| 20260507110426 | 49 | 296 | 0.0 | 0.0 | 0.00 | 0.30 | 0.23 | 91 | 1011.1 |
| 20260507105408 | 49 | 308 | 0.0 | 0.0 | 0.00 | 0.30 | 0.23 | 92 | 1011.0 |
| 20260507104607 | 49 | 308 | 0.0 | 0.0 | 0.00 | 0.30 | 0.23 | 92 | 1010.9 |
| 20260507103333 | 49 | 248 | 0.0 | 0.0 | 0.00 | 0.30 | 0.23 | 92 | 1010.8 |
| 20260507102315 | 49 | 248 | 0.0 | 0.0 | 0.00 | 0.30 | 0.23 | 92 | 1010.6 |
| 20260507101257 | 49 | 306 | 0.0 | 0.0 | 0.00 | 0.30 | 0.23 | 92 | 1010.5 |
| 20260507100240 | 49 | 306 | 0.0 | 0.0 | 0.00 | 0.30 | 0.23 | 92 | 1010.5 |
| 20260507095220 | 49 | 256 | 0.0 | 0.0 | 0.00 | 0.30 | 0.23 | 92 | 1010.4 |
| 20260507094203 | 49 | 316 | 0.0 | 0.0 | 0.00 | 0.30 | 0.23 | 92 | 1010.4 |
| 20260507093147 | 49 | 316 | 0.0 | 0.0 | 0.00 | 0.30 | 0.23 | 92 | 1010.4 |
| 20260507092130 | 49 | 320 | 0.0 | 0.0 | 0.01 | 0.30 | 0.23 | 92 | 1010.2 |
| 20260507091111 | 49 | 320 | 0.0 | 0.0 | 0.01 | 0.30 | 0.23 | 92 | 1010.2 |
| 20260507090054 | 49 | 316 | 0.0 | 4.0 | 0.01 | 0.30 | 0.23 | 92 | 1010.2 |
| 20260507085035 | 49 | 324 | 0.0 | 0.0 | 0.02 | 0.30 | 0.23 | 92 | 1010.1 |
| 20260507084234 | 49 | 324 | 0.0 | 0.0 | 0.03 | 0.30 | 0.23 | 92 | 1010.1 |
| 20260507083150 | 49 | 322 | 0.0 | 0.0 | 0.03 | 0.30 | 0.23 | 92 | 1010.2 |
| 20260507081919 | 49 | 324 | 0.0 | 0.0 | 0.03 | 0.29 | 0.22 | 91 | 1010.4 |
| 20260507081114 | 49 | 320 | 0.0 | 0.0 | 0.03 | 0.29 | 0.22 | 91 | 1010.5 |
| 20260507075844 | 49 | 322 | 0.0 | 0.0 | 0.04 | 0.29 | 0.22 | 91 | 1010.5 |
| 20260507074826 | 49 | 314 | 1.0 | 0.0 | 0.04 | 0.28 | 0.21 | 91 | 1010.5 |
| 20260507073809 | 50 | 324 | 0.0 | 0.0 | 0.07 | 0.26 | 0.20 | 91 | 1010.6 |
| 20260507072752 | 50 | 320 | 1.0 | 0.0 | 0.07 | 0.26 | 0.20 | 91 | 1010.5 |
| 20260507071732 | 50 | 320 | 1.0 | 0.0 | 0.07 | 0.25 | 0.19 | 91 | 1010.3 |
| 20260507070715 | 50 | 318 | 1.0 | 0.0 | 0.07 | 0.25 | 0.19 | 91 | 1010.4 |
| 20260507065654 | 50 | 318 | 1.0 | 0.0 | 0.07 | 0.24 | 0.18 | 91 | 1010.4 |
| 20260507064638 | 50 | 318 | 1.0 | 0.0 | 0.09 | 0.23 | 0.17 | 91 | 1010.2 |
| 20260507063555 | 51 | 320 | 1.0 | 0.0 | 0.09 | 0.20 | 0.13 | 90 | 1010.0 |
| 20260507062536 | 51 | 324 | 1.0 | 0.0 | 0.11 | 0.20 | 0.13 | 90 | 1010.1 |
| 20260507061517 | 51 | 322 | 1.0 | 0.0 | 0.12 | 0.19 | 0.12 | 89 | 1010.0 |
| 20260507060707 | 52 | 318 | 0.0 | 0.0 | 0.12 | 0.19 | 0.12 | 89 | 1009.9 |
| 20260507055426 | 52 | 330 | 0.0 | 7.0 | 0.11 | 0.18 | 0.11 | 88 | 1009.9 |
| 20260507054403 | 53 | 334 | 1.0 | 7.0 | 0.08 | 0.14 | 0.08 | 86 | 1009.6 |
| 20260507053345 | 54 | 326 | 1.0 | 0.0 | 0.04 | 0.11 | 0.04 | 85 | 1009.5 |
| 20260507052325 | 55 | 338 | 1.0 | 0.0 | 0.02 | 0.09 | 0.02 | 83 | 1009.4 |
| 20260507051522 | 55 | 340 | 0.0 | 0.0 | 0.00 | 0.07 | 0.00 | 83 | 1009.1 |
| 20260507050249 | 55 | 340 | 1.0 | 6.0 | 0.00 | 0.07 | 0.00 | 83 | 1009.2 |
| 20260507045231 | 56 | 340 | 1.0 | 0.0 | 0.00 | 0.07 | 0.00 | 84 | 1009.1 |
| 20260507044427 | 56 | 340 | 1.0 | 0.0 | 0.00 | 0.07 | 0.00 | 83 | 1009.4 |
| 20260507043412 | 56 | 340 | 1.0 | 0.0 | 0.00 | 0.07 | 0.00 | 83 | 1009.3 |
| 20260507042112 | 56 | 340 | 1.0 | 0.0 | 0.00 | 0.07 | 0.00 | 84 | 1009.5 |
| 20260507041055 | 57 | 340 | 1.0 | 0.0 | 0.00 | 0.07 | 0.00 | 84 | 1009.4 |
| 20260507040038 | 57 | 336 | 1.0 | 0.0 | 0.00 | 0.07 | 0.00 | 84 | 1009.4 |
| 20260507035021 | 57 | 336 | 1.0 | 0.0 | 0.00 | 0.07 | 0.07 | 85 | 1009.2 |
| 20260507034005 | 58 | 340 | 1.0 | 0.0 | 0.00 | 0.07 | 0.07 | 85 | 1009.3 |